Regional Weather Roundup
Issued by NWS

Home | Current Version | Previous Version | Graphics & Text | Print | Product List | Glossary On
Versions: 1 2 3 4 5 6 7 8 9 10 11 12 13 14 15 16 17 18 19 20 21 22 23 24 25 26 27
000
ASUS45 KBOU 231407
RWRCO

WEATHER ROUNDUP FOR COLORADO
NATIONAL WEATHER SERVICE DENVER/BOULDER CO
800 AM MDT TUE AUG 23 2016

NOTE: "FAIR" INDICATES FEW OR NO CLOUDS BELOW 12000 FEET WITH NO
SIGNIFICANT WEATHER AND/OR OBSTRUCTIONS TO VISIBILITY.

COZ001>005-013-030-031-231500-
...NORTHWEST COLORADO...

CITY           SKY/WX    TMP DP  RH WIND       PRES   REMARKS
CRAIG          FAIR      48  40  73 CALM      30.22R
HAYDEN         FAIR      50  36  57 E8        30.24R
MEEKER         FAIR      52  42  69 E3        30.24R
MOUNT WERNER   NOT AVBL
STEAMBOAT SPGS FAIR      42  36  81 CALM      30.26R
WALDEN         CLOUDY    46  36  66 CALM      30.30S
$$

COZ006>008-011-231500-
...WEST CENTRAL VALLEYS...

CITY           SKY/WX    TMP DP  RH WIND       PRES   REMARKS
GRAND JUNCTION FAIR      64  47  53 SE9       30.17R
MONTROSE       FAIR      56  45  66 S3        30.24R
EAGLE          SUNNY     52  45  76 CALM      30.29R
RIFLE          FAIR      55  47  74 CALM      30.22R
DELTA          NOT AVBL
NUCLA          FAIR      55  46  71 SE6       30.25S
$$

COZ017>023-064>068-231500-
...SOUTHWEST COLORADO...

CITY           SKY/WX    TMP DP  RH WIND       PRES   REMARKS
DURANGO        FAIR      50  48  93 E3        30.27R
CORTEZ         FAIR      58  49  72 CALM      30.22R
PAGOSA SPRINGS CLOUDY    52  47  85 CALM      30.33R
TELLURIDE      PTSUNNY   47  43  88 SE3       30.41R
WOLF CREEK PAS FOG       37  37 100 SW12      30.56S VSB<1/4
$$

COZ009-010-012-014-032>034-037-058>063-231500-
...CENTRAL COLORADO...

CITY           SKY/WX    TMP DP  RH WIND       PRES   REMARKS
ASPEN          FAIR      51  41  68 VRB3      30.31R
BUENA VISTA    FAIR      48  38  67 CALM      30.30R
COPPER MTN     FAIR      45  34  65 CALM      30.54R
BERTHOUD PASS  FAIR      37  25  60 N17G26    30.55R
COTTONWOOD PAS FAIR      52  36  54 W7        30.39R
GUNNISON       CLOUDY    48  43  81 NE3       30.38R
KREMMLING      FAIR      43  34  70 CALM      30.32S
LEADVILLE      FAIR      46  36  68 NE7       30.40R
MONARCH PASS   CLOUDY    37  36  93 W25G31    30.61R FOG
SALIDA         FAIR      56  41  58 N12G17    30.34R
SUNLIGHT       FAIR      46  39  76 CALM      30.50S
WILKERSON PASS NOT AVBL
$$

COZ069>075-231500-
...SAN LUIS VALLEY/SANGRE DE CRISTO MOUNTAINS...

CITY           SKY/WX    TMP DP  RH WIND       PRES   REMARKS
ALAMOSA        FAIR      48  42  80 CALM      30.31R
LA VETA PASS   FAIR      45  39  81 S13G25    30.38R
SAGUACHE       FAIR      54  41  62 NW9       30.32R
$$

COZ035-036-038>040-231500-
...NORTHERN COLORADO FRONT RANGE...

CITY           SKY/WX    TMP DP  RH WIND       PRES   REMARKS
DENVER INTL AP FAIR      70  38  31 SW12      30.02R
DMNS CITY PARK   N/A     67  42  41 SE6       30.03R
AURORA         MOSUNNY   67  40  37 S8        30.05R
FRONT RANGE AP MOSUNNY   70  37  30 SW9       30.04R
ERIE MUNI ARPT FAIR      68  41  36 CALM      30.00S
BOULDER MUN AP FAIR      68  41  37 CALM      30.01R
CENTENNIAL     FAIR      68  37  32 SW7       30.07R
BROOMFIELD     MOSUNNY   73  36  25 CALM      30.04R
FORT COLLINS   FAIR      66  46  48 CALM      30.00R
LONGMONT       FAIR      66  48  50 CALM      30.01R
$$

COZ041-046-047-076>085-087-088-231500-
...PIKES PEAK/PALMER DIVIDE AND SOUTHERN FOOTHILLS...

CITY           SKY/WX    TMP DP  RH WIND       PRES   REMARKS
COLO. SPRINGS  FAIR      70  38  31 NW12      30.09R
A. F. ACADEMY  FAIR      64  40  41 N8        30.11R
SCHRIEVER AFB  NOT AVBL
ELLICOTT       NOT AVBL
FALCON         FAIR      67  37  33 NW6       30.14R
FORT CARSON    FAIR      66  42  40 N6        30.06R
LIMON          FAIR      68  39  34 W8        30.03R
MONUMENT HILL  FAIR      61  37  41 SW6       30.17R
TRINIDAD       FAIR      64  44  48 W14       30.09S
$$

COZ042>045-048>051-090-091-231500-
...NORTHEAST COLORADO...

CITY           SKY/WX    TMP DP  RH WIND       PRES   REMARKS
GREELEY ARPT   FAIR      55  48  76 CALM      30.00R
AKRON          FAIR      65  43  44 W13       29.97R
BURLINGTON     FAIR      68  45  43 W12       29.93R
WRAY           FAIR      63  52  67 W9        29.89R
STERLING       FAIR      55  50  82 S5        29.93S
HOLYOKE        FAIR      64  59  82 CALM      29.89S
FORT MORGAN    FAIR      64  45  51 W6        29.98R
$$

COZ086-089-092>099-231500-
...SOUTHEAST COLORADO...

CITY           SKY/WX    TMP DP  RH WIND       PRES   REMARKS
PUEBLO         FAIR      72  45  37 VRB3      29.99R
LA JUNTA       FAIR      71  48  43 W16       29.96R
LAMAR          FAIR      71  51  49 W13       29.91S
SPRINGFIELD      N/A     67  51  56 SW13      29.98S
$$




USA.gov is the U.S. government's official web portal to all federal, state and local government web resources and services.